RH
42 42 42 41 46 53 57 61 80 84 74 66 66 58 59 54 57 55 56 52 59 57 54 63 58 55 64 65 80 70 81 68
41 44 42 41 44 49 52 58 62 56 53 52 47 47 47 57 50 55 56 56 57 58 52 56 55 58 63 65 62 68 62 61
44 44 44 44 45 47 49 51 52 50 44 50 45 45 48 47 48 54 55 56 58 54 60 56 59 53 62 63 68 58 58 62
44 45 47 44 45 46 46 49 51 51 48 46 48 49 46 44 47 48 56 56 57 60 61 61 61 57 59 61 68 68 62 58
43 45 46 46 50 51 48 48 48 52 51 52 52 45 48 52 50 52 50 56 57 58 62 63 65 59 64 60 59 68 68 68
43 43 44 43 47 50 51 51 52 55 57 56 50 52 50 50 49 53 55 56 57 59 63 66 67 63 67 69 70 71 68 77
42 43 44 44 46 51 54 53 54 55 55 57 57 56 52 47 53 49 51 51 52 61 60 64 65 65 68 67 72 74 71 70
44 46 43 47 50 53 54 51 56 55 56 55 55 57 56 56 53 52 53 52 55 63 62 65 62 67 69 68 69 69 66 66
45 43 43 44 50 51 52 52 56 55 53 54 53 50 47 50 55 52 55 56 57 62 63 62 64 67 67 68 63 61 64 66
45 44 45 45 48 54 55 53 52 51 52 52 54 54 56 57 58 56 55 58 51 63 63 64 64 64 64 61 59 64 64 65
43 43 47 44 45 48 58 56 52 52 51 51 51 56 56 56 57 61 62 61 62 62 63 64 64 64 63 62 60 62 66 64
42 40 43 44 44 46 51 54 55 54 52 55 57 58 57 57 59 62 63 64 64 62 64 64 64 64 62 62 63 64 68 71
40 40 44 46 45 43 46 50 50 50 50 55 60 58 56 59 61 63 67 67 67 65 63 64 64 60 63 66 67 68 73 73
41 43 45 44 44 42 43 47 46 46 48 53 59 57 58 60 62 65 64 64 64 64 61 63 64 64 65 63 64 67 66 66
44 45 44 44 43 41 42 47 47 46 48 51 57 57 59 60 62 63 64 61 61 59 60 62 64 63 63 64 63 69 66 63
47 48 46 45 44 44 43 49 47 47 49 52 59 60 59 62 64 64 66 65 62 59 61 62 62 60 59 70 67 66 65 66
45 45 44 44 43 43 47 50 50 50 53 57 56 58 58 64 66 67 68 66 63 63 62 65 66 53 78 76 75 63 63 63
45 43 43 43 43 46 49 50 52 53 56 58 56 58 60 64 62 63 67 69 66 66 64 64 66 64 80 78 82 60 61 64
42 40 42 42 44 44 50 50 53 57 57 56 55 58 60 61 62 64 68 64 66 66 65 64 64 60 76 79 81 61 60 62
Wind_Speed
9 11 10 11 11 11 11 9 11 10 7 8 7 8 8 9 8 9 13 11 13 9 9 10 9 8 8 9 9 8 6 9
8 9 10 12 12 12 11 10 8 5 5 6 8 9 9 8 9 13 13 12 12 11 9 10 9 9 10 11 9 9 7 11
9 10 11 12 13 12 13 12 10 9 7 7 6 8 8 8 8 11 13 12 12 11 10 10 11 8 11 12 12 7 6 10
11 10 10 11 12 12 13 12 12 11 11 9 9 8 7 8 8 9 10 11 12 12 12 10 10 9 9 10 10 11 7 6
10 11 11 11 11 11 13 13 13 11 11 10 12 9 9 7 7 7 8 11 12 12 11 11 10 8 10 9 9 9 8 8
14 13 13 13 11 12 12 14 13 12 11 11 9 11 8 6 6 7 8 9 12 12 11 10 10 8 9 10 10 10 7 6
14 13 13 13 11 12 11 14 12 11 11 12 12 12 10 8 8 7 7 7 7 11 10 9 9 9 9 8 9 10 9 7
16 16 14 13 13 12 11 13 12 11 11 12 11 11 11 10 8 7 7 6 7 9 9 10 9 10 9 9 10 9 10 9
18 17 15 14 14 12 12 12 12 11 11 11 9 10 7 7 9 7 6 6 7 9 9 10 10 10 10 9 7 8 10 9
20 18 15 15 13 13 13 12 11 11 10 9 9 9 10 8 8 8 7 8 7 9 9 9 9 9 10 10 8 10 10 9
20 18 17 14 13 12 12 12 13 12 10 9 9 9 9 8 8 10 10 9 9 9 8 8 8 8 10 10 8 10 10 9
22 19 17 15 14 13 12 12 13 11 10 10 9 9 9 9 9 9 9 8 8 8 7 7 8 9 11 10 11 11 11 11
22 20 18 17 16 14 14 13 13 12 11 10 10 9 9 10 9 8 8 8 7 7 8 8 8 10 11 11 11 11 11 11
22 20 19 18 17 15 14 13 13 12 11 11 10 9 9 9 9 8 7 7 8 8 8 9 8 10 11 12 12 11 11 10
21 20 20 18 17 16 15 14 13 12 11 11 10 9 9 8 8 8 8 7 8 9 8 8 7 10 11 13 13 11 11 11
22 21 19 19 17 16 15 14 13 13 12 11 10 9 9 8 8 8 7 8 8 8 7 7 6 9 10 14 13 9 11 12
24 23 23 21 20 18 15 15 14 12 12 11 10 10 9 8 8 7 7 7 8 7 7 6 7 7 12 16 15 9 10 11
26 25 22 20 19 17 17 16 14 12 12 11 10 10 9 8 8 7 8 7 6 6 7 7 7 9 15 17 16 9 10 12
25 22 20 19 18 17 16 16 15 13 12 12 10 10 10 8 8 8 7 6 6 5 6 7 6 8 15 17 17 12 11 12
Wind_Direction
81 80 78 80 83 86 85 75 82 80 82 89 86 70 67 62 55 52 40 43 39 42 44 32 32 33 25 16 353 358 4 343
88 82 84 88 81 87 88 79 63 96 86 93 84 81 74 65 59 51 49 44 43 40 42 36 33 37 26 19 1 359 8 357
102 88 83 79 85 85 87 87 86 85 93 93 93 88 74 74 67 57 50 47 45 49 44 43 37 37 34 27 18 2 3 22
131 116 105 100 90 86 88 90 90 89 102 105 99 93 92 77 64 59 49 47 47 44 43 41 39 36 33 28 20 20 2 13
142 132 118 111 107 105 97 90 89 85 90 92 92 91 91 78 73 66 61 48 47 46 44 42 41 37 34 26 25 18 6 7
156 147 137 126 121 109 102 98 94 93 95 99 99 98 92 90 86 84 68 57 46 42 40 39 38 35 32 29 26 23 23 11
159 147 140 133 131 121 118 108 104 103 102 102 99 100 100 94 77 70 58 52 43 38 38 37 36 34 30 30 30 29 21 17
165 161 154 149 144 137 129 123 119 115 106 100 98 97 94 86 81 69 64 57 47 39 36 37 36 34 35 33 30 26 13 5
175 170 161 156 154 151 139 134 125 119 110 106 104 99 90 84 72 71 66 65 56 48 47 45 42 39 35 29 22 13 5 356
178 171 166 161 160 158 150 141 133 128 119 112 97 86 84 83 77 77 72 65 64 53 47 44 42 41 32 14 14 11 0 355
177 173 169 165 160 156 152 149 147 140 127 115 105 101 96 88 83 78 71 69 62 58 52 51 51 45 28 17 12 11 360 0
176 172 169 166 159 156 154 152 147 140 128 125 120 112 99 91 84 77 73 71 65 62 59 57 52 38 25 22 14 10 5 3
173 168 166 167 165 161 161 156 151 146 139 130 116 107 98 90 85 82 76 75 73 69 56 57 52 37 29 21 15 13 7 360
167 166 172 172 168 164 162 161 153 148 140 128 120 108 102 97 94 89 87 86 77 67 59 55 52 34 27 20 14 10 5 2
168 172 175 173 170 165 163 160 156 150 142 132 123 118 113 108 99 94 88 80 73 64 54 50 50 35 24 13 7 359 1 359
176 173 173 172 169 165 163 159 156 152 141 134 126 123 118 112 104 99 91 77 70 63 56 50 46 41 23 9 358 356 357 356
174 174 174 173 171 166 162 158 158 153 144 138 136 135 127 119 109 104 94 82 72 63 50 46 43 42 14 11 356 356 358 359
176 176 173 173 170 160 165 162 156 154 146 146 146 141 132 121 116 100 84 77 76 65 50 47 48 33 13 5 352 5 358 357
177 174 173 169 160 158 155 157 159 154 153 152 151 145 131 127 113 97 92 81 64 60 50 43 43 44 11 4 349 3 359 356